SES-11 (ECHOSTAR 105)

Last updated on Tue Sep 22 2026 00:03:14 GMT+0000 (Coordinated Universal Time)

1 42967U 17063A 26264.51175125 -.00000093 00000+0 00000+0 0 9993 2 42967 0.0328 319.0218 0002655 203.1751 277.4874 1.00272332 32682
UTC large
Height (km)
Speed (km/s)
/
Latitude / Longitude
Inclination (degrees)
Orbital Period (minutes)
Azimuth
Elevation
Range (km)
Doppler Factor

Next 0 passes for location: London (51.5072 / 0.1276)

No passes found over London.
SES-11 (ECHOSTAR 105)